This is the latest recevied weather packets stored in our database for station/object NC4M. If no packets are shown the sender has not sent any weather packets the latest 10 day(s).
| Time | Temp. | Humidity | Pressure | Rain* | Wind** | Luminosity | Snow |
|---|---|---|---|---|---|---|---|
| 1787943401 | 27.78° C | 47% | 1021.5 hPa | 0 mm | - | 100 W/m² | - |
| 1787943096 | 28.89° C | 44% | 1021.6 hPa | 0 mm | - | 91 W/m² | - |
| 1787942792 | 28.89° C | 45% | 1021.6 hPa | 0 mm | - | 116 W/m² | - |
| 1787942492 | 28.89° C | 46% | 1021.7 hPa | 0 mm | - | 80 W/m² | - |
| 1787942186 | 28.89° C | 44% | 1021.6 hPa | 0 mm | - | 76 W/m² | - |
| 1787941882 | 28.89° C | 41% | 1021.7 hPa | 0 mm | - | 79 W/m² | - |
| 1787941581 | 28.33° C | 45% | 1021.8 hPa | 0 mm | - | 881 W/m² | - |
| 1787941276 | 28.33° C | 43% | 1021.9 hPa | 0 mm | - | 895 W/m² | - |
| 1787940975 | 28.89° C | 41% | 1021.9 hPa | 0 mm | - | 904 W/m² | - |
| 1787940674 | 28.33° C | 50% | 1021.8 hPa | 0 mm | - | 906 W/m² | - |
| 1787940373 | 27.78° C | 46% | 1022 hPa | 0 mm | - | 893 W/m² | - |
| 1787940067 | 27.78° C | 45% | 1022.1 hPa | 0 mm | - | 887 W/m² | - |
| 1787939767 | 28.33° C | 45% | 1022 hPa | 0 mm | - | 894 W/m² | - |
| 1787939461 | 28.33° C | 47% | 1022.2 hPa | 0 mm | - | 898 W/m² | - |
| 1787939156 | 27.78° C | 49% | 1022.2 hPa | 0 mm | - | 914 W/m² | - |
| 1787938856 | 27.22° C | 50% | 1022.4 hPa | 0 mm | - | 894 W/m² | - |
| 1787938555 | 27.78° C | 49% | 1022.2 hPa | 0 mm | - | 87 W/m² | - |
| 1787938252 | 27.78° C | 44% | 1022.4 hPa | 0 mm | - | 972 W/m² | - |
| 1787937951 | 28.33° C | 43% | 1022.5 hPa | 0 mm | - | 880 W/m² | - |
| 1787937647 | 28.33° C | 48% | 1022.4 hPa | 0 mm | - | 871 W/m² | - |
| 1787937343 | 27.78° C | 42% | 1022.5 hPa | 0 mm | - | 855 W/m² | - |
| 1787937039 | 28.33° C | 47% | 1022.3 hPa | 0 mm | - | 855 W/m² | - |
| 1787936738 | 27.78° C | 50% | 1022.5 hPa | 0 mm | - | 852 W/m² | - |
| 1787936433 | 27.78° C | 49% | 1022.6 hPa | 0 mm | - | 846 W/m² | - |
| 1787936133 | 28.33° C | 49% | 1022.6 hPa | 0 mm | - | 838 W/m² | - |
* Rain latest hour (hover to see other rain measurements)
** Current wind speed in m/s (hover to see current wind gust speed)